Regional Weather Roundup
Issued by NWS

Home | Current Version | Previous Version | Text Only | Print | Product List | Glossary On
Versions: 1 2 3 4 5 6 7 8 9 10 11 12 13 14 15 16 17 18 19 20 21 22 23 24 25 26 27 28 29 30 31 32 33 34 35 36 37 38 39 40 41 42 43 44 45 46 47 48 49 50
000
ASUS44 KEWX 280811
RWRTX
SOUTH TEXAS REGIONAL WEATHER ROUNDUP
NATIONAL WEATHER SERVICE AUSTIN/SAN ANTONIO TX
300 AM CDT FRI AUG 28 2015

NOTE: "FAIR" INDICATED FEW OR NO CLOUDS BELOW 12,000 FEET WITH NO
SIGNIFICANT WEATHER AND/OR OBSTRUCTIONS TO VISIBILITY.

* - THESE STATIONS ARE NOT NWS OR FAA STATIONS...AND ARE NOT SUBJECT
    TO NWS AND FAA QUALITY CONTROL.

TXZ171-172-183>190-280900-
TEXAS HILL COUNTRY AND EDWARDS PLATEAU

CITY           SKY/WX    TMP DP  RH WIND       PRES   REMARKS
JUNCTION       CLEAR     76  60  57 SW5       30.03F
*LLANO         CLEAR     73  57  56 CALM      30.04S
BURNET         CLEAR     75  57  53 S3        30.04S
*HORSESHOE BAY CLEAR     76  60  56 S5        30.01S
*KERRVILLE     CLEAR     74  64  69 S7        30.05F
*FREDERICKSBRG CLEAR     73  58  58 SW6       30.04F
*ROCKSPRINGS   CLEAR     72  57  60 S6        30.09S
*BOERNE STAGE  CLEAR     72  61  68 SW7       30.04F
*CASTROVILLE   CLEAR     71  61  70 CALM      30.03S
HONDO          CLEAR     73  62  68 CALM      30.03F
*UVALDE        CLEAR     72  61  67 SE3       30.03S
DEL RIO        CLEAR     78  57  48 SE6       29.99R
LAUGHLIN AFB   CLEAR     74  58  56 SE8       30.00R
CARRIZO SPRGS  CLEAR     73  59  60 SE7       29.99S
*EAGLE PASS    SUNNY     77  57  50 S8        30.00S
$$

TXZ173-191>194-202-209-217>225-228-280900-
CENTRAL AND SOUTH CENTRAL TEXAS

CITY           SKY/WX    TMP DP  RH WIND       PRES   REMARKS
GEORGETOWN     CLEAR     70  57  64 SW3       30.01S
AUSTIN/BERGSTM CLEAR     67  62  84 SW3       29.99F
AUSTIN/MABRY   CLEAR     75  60  59 SW3       30.00F
*AUSTIN/EXEC   CLOUDY    72  63  73 CALM      30.00S
*LAGO VISTA    CLEAR     78  58  50 SW8       30.02F
SAN MARCOS     CLEAR     70  57  64 CALM      30.01F
NEW BRAUNFELS  CLEAR     71  65  81 W5        29.99F
RANDOLPH AFB   CLEAR     75  64  67 SW5       30.00F
PT SAN ANTONIO CLEAR     71  63  77 S3        30.00F
SAN ANTONIO    PTCLDY    77  63  61 SW5       30.01F
STINSON FIELD  CLEAR     73  64  73 W3        29.99F
*PLEASANTON    CLEAR     73  63  71 CALM      30.00F
*LA GRANGE     CLEAR     73  65  77 CALM      29.96F
*GIDDINGS      CLEAR     67  63  85 CALM      30.02F
*GONZALES      CLEAR     72  66  83 CALM      29.98F
$$

TXZ163>164-176>182-195>201-210>213-226-227-235-280900-
SOUTHEAST TEXAS

CITY           SKY/WX    TMP DP  RH WIND       PRES   REMARKS
COLLEGE STN    CLEAR     74  66  76 CALM      29.98F
*BRYAN         CLEAR     70  64  82 CALM      29.99S
*CALDWELL      CLEAR     70  70 100 CALM      30.01F
*CROCKETT      CLEAR     70  63  78 NE3       30.03R
*BRENHAM       CLEAR     73  68  83 CALM      29.99S
HUNTSVILLE     CLEAR     73  63  70 S3        29.99S
CONROE         CLEAR     68  65  90 CALM      29.99F
HOUSTON BUSH   PTCLDY    72  67  84 CALM      29.97F
HOUSTON HOBBY  PTCLDY    74  67  78 CALM      29.97F
*HOUSTON SW AP CLEAR    N/A N/A N/A CALM      29.98F
PEARLAND       CLEAR     73  68  84 CALM      29.98F
HOUSTON HOOKS  CLEAR     71  67  87 CALM      29.98F
ELLINGTON FLD  PTCLDY    75  68  78 CALM      29.98F
SUGAR LAND     CLEAR     70  68  93 CALM      29.97F
*HOUSTON EXEC  MOCLDY    73  68  83 SW7       29.99S
*CLEVELAND MUN CLEAR     67  66  97 CALM      29.99F FOG
*WHARTON       CLEAR     71  69  95 CALM      29.98F
*COLUMBUS      FAIR      70  67  92 CALM      29.98F
*EAGLE LAKE    SUNNY     74  70  86 SW5       29.98S
$$

TXZ214>216-236>238-280900-
THE UPPER TEXAS COAST

CITY           SKY/WX    TMP DP  RH WIND       PRES   REMARKS
*ORANGE        CLEAR    N/A N/A N/A CALM      29.99F
PORT ARTHUR    CLEAR     71  68  90 N3        29.97F
GALVESTON      CLEAR     81  69  67 SW5       29.98F
ANGLETON       CLEAR     70  68  93 CALM      29.97F
*BAY CITY      CLEAR     72  72  99 CALM      29.97F
PALACIOS       CLEAR     79  69  71 S6        29.97F
$$

TXZ229>234-239>247-280900-
TEXAS COASTAL BEND AND RIO GRANDE PLAINS

CITY           SKY/WX    TMP DP  RH WIND       PRES   REMARKS
VICTORIA       CLEAR     71  68  90 CALM      29.98F
*BEEVILLE      CLEAR     72  69  90 SW5       29.98S
ROCKPORT       PTCLDY    76  66  71 S6        29.97F
*PORT ARANSAS  CLEAR     81  66  60 S5        29.97F
*PORT LAVACA   CLEAR     73  69  87 S5        29.97F
*INGLESIDE     PTCLDY    76  67  75 S5        29.97F
CORPUS CHRISTI MOCLDY    72  65  78 S3        29.97F
CORPUS NAS     PTCLDY    77  66  68 S5        29.97F
*ROBSTOWN      PTCLDY    72  65  77 CALM      29.98F
ALICE          CLEAR     68  65  90 SW6       29.98F
KINGSVILLE NAS CLEAR     72  68  87 SW3       29.98F
COTULLA        CLEAR     74  63  68 SE5       30.00F
*FAITH RANCH     N/A     77  61  57 S8        30.00S
LAREDO         CLEAR     75  62  64 S8        30.02F
$$

TXZ248>255-280900-
DEEP SOUTH TEXAS

CITY           SKY/WX    TMP DP  RH WIND       PRES   REMARKS
BROWNSVILLE    MOCLDY    75  70  84 CALM      29.97F
PORT ISABEL    MOCLDY    79  71  76 NE3       29.96F
*SOUTH PADRE   PTCLDY    82  72  69 E8        29.96F
HARLINGEN      PTCLDY    72  69  90 NW5       29.96F
*HEBBRONVILLE  NOT AVBL
MCALLEN        CLEAR     75  69  81 CALM      29.99F
*WESLACO       MOCLDY    72  67  83 CALM      29.98S
FALFURRIAS     CLEAR     69  65  86 CALM      29.98F
EDINBURG       CLEAR     71  65  81 CALM      29.99S
*ZAPATA        CLEAR     74  63  69 S3        30.00F
$$

TXZ213>215-236>238-242>244-246-247-251-254-255-280900-
CMAN STATIONS

STATION/POSITION TIME  TEMP    WIND        PRES    WAVE
                       AIR SEA DIR/SP/G            HT/PER
                 (UTC) (F)     (DEG/KT/KT) (MB)    (FT/S)
$$

GMZ080-GMZ150>470-280900-
OFFSHORE BUOY REPORTS

STATION/POSITION TIME  TEMP    WIND        PRES    WAVE
                       AIR SEA DIR/SP/G            HT/PER
                 (UTC) (F)     (DEG/KT/KT) (MB)    (FT/S)
$$



USA.gov is the U.S. government's official web portal to all federal, state and local government web resources and services.